Location: Bonny Doon Airfield
(37.0704°N, 122.1252°W)
Time: 06:01:28
(UTC-08:00)

Envisat - Pass Details

Date: 16 October 2017
Orbit: 764 x 766 km, 98.2° (Epoch: 17 December)

Event Time Altitude Azimuth Distance (km) Brightness Sun altitude
Exits shadow 19:26:30 10° 52° (NE) 2,294 5.0 -12.1°
Drops below altitude 10° 19:26:39 10° 50° (NE) 2,304 5.0 -12.1°
Sets 19:31:10 0° 13° (NNE) 3,240 6.1 -13.0°
